Temperature
7 9 9 9 9 9 9 10 10 9 7 7 8 8 8 6 5 5 5 4 4 4 4 4 4 5 5 5 5 6 6 6 6 6 6 6 6 6 6 6 6 6 6 6
9 8 7 7 7 8 8 9 9 8 6 7 7 7 7 6 5 5 4 4 4 3 3 3 4 4 4 5 5 5 5 5 5 5 5 5 5 5 5 5 5 5 5 6
9 7 6 7 7 8 8 8 8 8 6 5 6 8 7 6 4 4 3 3 3 3 3 3 3 4 4 4 4 5 5 5 5 5 5 5 4 4 5 5 5 5 5 5
7 6 6 6 7 7 8 6 6 6 7 8 6 9 9 6 5 4 4 3 3 2 2 2 3 3 3 4 4 4 4 4 4 4 4 4 4 4 4 4 4 4 4 4
6 5 5 6 6 6 6 5 5 5 6 6 6 6 9 5 5 5 4 3 2 2 2 2 2 3 3 3 3 3 3 3 4 3 3 3 3 3 3 3 4 4 4 4
4 4 4 5 4 5 4 5 4 5 5 6 6 6 9 7 6 6 4 3 2 2 1 1 2 2 2 2 3 3 3 3 3 3 3 3 3 3 3 3 3 3 3 3
5 4 3 3 4 4 5 6 7 7 7 8 5 5 7 6 5 4 3 2 2 1 1 1 1 1 1 2 2 2 2 2 2 2 2 2 2 2 2 2 2 2 3 3
6 6 4 3 4 5 4 5 7 8 8 8 4 5 7 4 3 2 2 1 1 0 1 1 1 1 1 1 1 1 1 2 2 2 2 2 1 1 2 2 2 2 2 2
6 5 2 2 2 4 4 5 4 5 4 5 7 6 5 4 3 2 1 1 0 -0 0 0 0 0 0 1 1 1 1 1 1 1 1 1 1 1 1 1 1 1 1 1
4 3 2 2 2 2 3 3 4 4 5 7 7 6 7 4 4 3 2 1 0 -0 -0 0 -0 -0 -0 0 0 0 0 0 1 1 1 1 1 1 1 1 1 1 1 1
2 3 2 2 2 3 2 2 3 4 4 6 7 7 5 4 3 2 1 0 -0 -0 -1 -1 -0 -1 -1 -1 -0 -0 -0 -0 0 0 0 0 0 0 0 0 0 0 0 0
1 3 2 2 0 -1 1 2 2 4 3 3 5 6 2 1 1 0 -0 -1 -1 -1 -1 -1 -1 -1 -1 -1 -1 -1 -1 -1 -1 -0 -0 -0 -0 -0 -0 -0 -0 -0 -0 -0
0 1 3 3 1 -1 -1 -0 -0 0 2 3 4 5 0 -1 -1 -1 -1 -1 -2 -2 -2 -2 -2 -2 -2 -2 -2 -1 -1 -1 -1 -1 -1 -1 -1 -1 -1 -1 -1 -1 -1 -1
0 0 2 4 3 1 -1 -1 -2 -0 2 3 3 4 2 1 0 -0 -1 -2 -2 -2 -3 -3 -3 -3 -2 -3 -3 -2 -2 -2 -2 -2 -2 -2 -2 -2 -2 -2 -2 -1 -1 -1
-0 0 -1 -1 -1 -1 -1 -1 -2 -1 1 2 3 1 2 1 0 -1 -2 -3 -3 -3 -3 -3 -3 -3 -3 -3 -3 -3 -3 -3 -3 -3 -3 -2 -2 -2 -2 -2 -2 -2 -2 -2
-2 -1 -2 -2 -2 -2 -2 -1 -1 -2 -1 -0 -0 0 1 -1 -2 -2 -3 -3 -3 -3 -3 -3 -4 -4 -4 -4 -4 -4 -4 -3 -3 -3 -3 -3 -3 -3 -3 -3 -3 -3 -3 -3
-2 -2 -1 0 -3 -2 -0 -1 -2 -2 -2 -1 -0 0 -1 -2 -3 -3 -3 -4 -4 -4 -4 -4 -4 -4 -4 -4 -4 -4 -4 -4 -4 -4 -4 -4 -4 -4 -4 -4 -4 -4 -3 -3
-4 -2 -2 -1 -2 -1 1 -3 -3 -3 -3 -3 -3 -2 -3 -3 -4 -4 -4 -4 -4 -4 -4 -4 -4 -4 -4 -4 -4 -4 -4 -4 -4 -5 -5 -5 -5 -5 -4 -4 -4 -4 -4 -4
-4 -3 -2 -2 -1 0 -0 -4 -5 -4 -3 -4 -4 -4 -4 -5 -5 -4 -4 -4 -4 -4 -4 -4 -5 -5 -5 -5 -5 -5 -5 -5 -5 -5 -5 -5 -5 -5 -5 -5 -5 -5 -5 -5
-5 -4 -2 -2 -1 0 1 -4 -6 -4 -2 -4 -5 -5 -5 -6 -3 -2 -4 -5 -5 -5 -5 -5 -5 -5 -5 -5 -6 -6 -6 -6 -6 -6 -6 -6 -6 -6 -6 -6 -6 -6 -6 -6
-5 -4 -3 -3 -2 -0 -3 -7 -6 -2 -1 -5 -6 -6 -6 -6 -4 -5 -5 -5 -5 -5 -5 -5 -5 -6 -6 -6 -6 -6 -6 -6 -6 -6 -6 -6 -6 -6 -6 -6 -6 -6 -6 -6
-3 -3 -4 -3 -3 -1 -6 -6 -4 -3 -5 -6 -6 -6 -6 -6 -6 -6 -6 -6 -6 -6 -6 -6 -6 -6 -7 -7 -7 -7 -7 -7 -7 -7 -7 -7 -7 -7 -7 -7 -7 -7 -7 -7
-5 -4 -3 -3 -2 -5 -7 -6 -6 -6 -6 -6 -6 -6 -7 -7 -7 -7 -7 -7 -7 -7 -7 -7 -7 -7 -7 -7 -7 -7 -8 -8 -8 -8 -8 -8 -8 -8 -8 -8 -8 -8 -8 -8
-6 -8 -6 -6 -5 -7 -7 -7 -7 -7 -7 -7 -7 -7 -7 -7 -7 -7 -7 -7 -7 -8 -8 -8 -8 -8 -8 -8 -8 -8 -8 -9 -9 -9 -9 -9 -9 -9 -9 -9 -9 -9 -9 -9
-6 -8 -8 -7 -7 -8 -7 -7 -7 -7 -7 -7 -7 -7 -8 -8 -8 -8 -8 -8 -8 -8 -8 -8 -8 -8 -9 -9 -9 -9 -9 -9 -9 -9 -9 -9 -9 -10 -9 -9 -9 -9 -9 -9
-8 -8 -7 -5 -6 -7 -7 -7 -7 -8 -8 -8 -8 -8 -8 -8 -8 -8 -8 -9 -9 -9 -9 -9 -9 -9 -9 -9 -9 -9 -10 -10 -10 -10 -10 -10 -10 -10 -10 -10 -10 -10 -10 -10
Wind_Speed
2 4 5 6 7 5 5 7 8 6 2 5 10 12 9 6 6 6 5 4 4 4 3 2 2 1 0 0 0 1 1 1 1 1 1 2 1 1 1 1 1 2 2 3
4 5 5 4 5 5 6 7 8 5 2 5 8 11 9 8 6 6 6 5 5 4 3 2 1 1 1 1 1 1 1 1 1 1 1 1 1 1 1 1 1 1 2 3
5 2 3 5 5 6 7 7 7 5 3 3 6 8 7 4 5 4 5 5 4 4 4 3 2 2 2 1 1 1 1 1 1 0 1 1 1 1 1 1 1 0 1 2
3 2 3 5 5 6 8 5 5 5 5 4 3 6 6 4 4 5 5 4 4 4 4 3 3 3 2 2 2 2 1 1 1 1 1 2 1 1 2 2 1 1 1 1
2 1 2 4 4 5 3 2 4 5 6 6 5 6 6 3 5 6 5 4 4 3 4 3 3 3 2 2 2 2 2 1 1 1 1 2 1 1 1 1 1 1 1 0
1 1 1 2 1 2 3 2 2 3 4 7 7 8 7 5 6 4 4 4 4 3 3 3 2 2 2 2 1 1 2 1 1 1 1 1 2 1 2 1 1 1 1 1
2 2 1 1 2 2 3 3 3 4 5 6 5 7 7 4 5 5 4 4 3 2 2 2 2 2 2 2 2 2 2 1 1 1 1 1 2 2 2 2 2 1 1 1
4 4 3 2 3 4 4 5 4 5 6 5 5 9 5 2 3 3 3 3 2 2 2 2 2 2 2 2 2 2 2 1 1 1 1 1 1 1 1 2 2 2 1 1
4 3 1 0 1 3 4 4 2 2 2 6 7 6 5 4 4 3 3 2 2 2 2 2 2 2 2 2 2 2 2 2 1 1 1 1 1 1 1 1 2 1 1 1
1 2 1 1 2 0 2 3 4 4 4 7 6 7 5 5 5 3 2 3 3 2 2 2 2 2 2 2 2 2 2 2 2 1 1 1 1 1 1 1 1 1 1 1
1 2 1 2 4 5 4 4 4 4 4 5 6 5 1 4 3 3 3 3 3 3 3 3 3 3 2 2 2 2 2 2 2 1 1 1 1 1 1 1 1 1 1 1
2 2 3 3 0 2 3 5 6 5 5 5 5 5 2 1 1 2 3 3 3 3 3 3 3 2 2 2 2 2 2 2 2 2 2 2 1 1 1 1 1 1 1 2
4 3 2 2 2 2 3 3 4 2 2 6 8 6 2 0 3 3 4 4 3 3 3 3 2 2 2 2 2 2 2 2 2 2 2 2 1 1 2 2 2 1 2 2
2 3 5 6 2 3 4 5 5 6 6 8 11 11 5 5 5 5 4 4 4 3 2 2 2 2 3 3 2 2 2 2 2 2 2 2 2 2 2 2 2 2 2 2
2 3 3 5 4 3 6 8 9 11 11 10 9 10 11 8 6 6 5 4 4 3 2 3 3 3 3 3 3 3 2 2 2 2 2 2 2 2 2 2 2 2 2 2
2 2 1 4 3 4 7 11 12 13 12 13 14 14 8 5 5 5 5 4 4 4 3 4 4 4 4 4 3 3 3 2 2 2 3 2 2 2 2 2 2 2 2 2
3 4 3 4 3 4 9 10 11 8 8 9 12 10 4 4 5 6 5 4 5 5 5 5 5 5 5 4 4 4 3 3 2 3 3 2 2 2 2 2 2 2 2 2
4 4 2 2 2 8 4 2 5 7 7 8 8 6 4 6 7 6 5 6 6 6 6 5 5 5 5 4 4 3 3 2 3 3 3 3 3 3 2 2 2 2 2 2
3 4 3 3 5 8 4 1 3 5 6 6 9 9 6 5 6 5 4 5 6 6 6 5 5 5 5 4 3 2 2 3 3 3 3 3 3 3 3 3 3 3 2 3
1 2 4 4 5 7 2 1 1 2 5 1 4 7 5 2 4 4 2 4 5 6 5 5 4 4 4 3 2 2 3 3 4 4 3 3 3 3 3 3 3 3 3 3
3 4 6 7 7 8 1 2 3 4 3 1 3 4 4 5 5 4 5 5 5 5 5 4 3 3 3 3 3 3 3 4 4 3 3 3 3 3 3 3 2 3 2 2
7 6 7 6 7 8 4 6 5 2 2 1 3 3 4 6 6 6 6 6 6 6 5 4 3 4 3 2 3 4 4 4 3 2 2 2 2 2 2 2 2 3 3 3
7 6 5 8 6 1 6 4 2 1 2 3 4 4 5 6 6 6 6 7 6 6 5 4 4 4 4 3 3 4 4 3 2 2 2 2 2 2 2 2 3 3 3 3
4 1 3 5 7 3 4 4 3 3 3 4 4 4 5 6 7 7 6 6 6 5 5 4 4 4 4 4 4 4 3 2 2 2 2 2 2 2 2 2 2 3 3 3
4 6 4 6 6 4 5 6 5 4 4 4 4 4 5 6 6 6 6 6 5 5 4 4 4 5 5 4 4 3 2 2 2 2 2 2 2 2 2 2 3 3 4 4
5 7 7 6 4 4 4 3 4 5 5 6 5 6 5 5 6 6 6 5 5 5 5 4 5 5 5 4 4 3 3 3 3 2 2 2 2 2 2 2 2 4 4 5
Wind_Direction
175 186 204 211 215 231 228 233 245 244 215 232 243 253 256 242 236 242 244 247 254 263 278 280 273 265 236 166 172 175 148 131 127 149 192 193 203 190 173 149 158 177 175 169
180 218 228 217 204 209 224 239 248 246 242 249 261 261 256 241 233 235 240 246 255 268 275 276 277 266 242 217 218 215 192 187 187 219 226 240 199 201 176 140 138 158 180 180
202 201 205 196 198 215 233 243 249 255 269 241 274 256 226 225 227 243 250 252 256 256 258 257 253 247 247 241 237 234 224 210 211 230 146 85 120 165 189 210 199 224 200 194
199 224 199 198 212 225 239 238 247 239 245 254 253 269 231 227 240 248 254 253 256 260 255 252 243 237 237 247 244 236 224 212 206 181 178 168 192 215 227 220 210 196 189 189
191 195 205 216 228 225 230 221 230 237 237 254 229 248 250 206 249 251 245 247 260 262 256 252 244 234 229 231 232 232 225 206 195 189 203 204 217 226 177 170 185 191 178 160
213 263 275 250 278 219 182 173 184 209 226 243 224 230 254 216 231 243 235 243 261 267 264 261 258 235 220 214 213 214 219 209 180 187 204 210 211 192 155 138 183 200 201 194
223 215 219 235 204 183 206 210 236 227 225 239 199 233 250 230 228 239 249 258 272 270 264 262 256 239 227 220 211 211 214 219 196 207 231 234 230 207 191 188 198 203 215 229
215 224 197 217 226 215 211 220 226 243 249 254 213 235 241 228 250 257 253 261 270 279 264 257 258 246 225 220 214 219 221 231 241 232 236 233 227 219 216 216 215 211 229 228
217 221 71 303 285 223 194 212 242 234 265 261 239 246 264 225 242 253 255 259 258 275 273 271 277 269 250 232 225 227 226 236 252 255 253 242 237 238 223 212 212 218 238 242
206 233 257 293 198 177 260 175 180 207 237 253 249 239 233 207 215 227 249 259 267 281 286 287 289 285 269 259 246 236 233 230 239 248 251 260 254 245 230 212 209 216 227 238
181 199 234 207 214 212 181 193 209 207 236 245 260 248 212 202 205 228 256 274 273 273 277 282 290 289 282 270 256 248 244 246 250 246 245 250 254 248 232 229 230 224 225 226
177 193 236 236 209 325 244 220 201 217 220 224 255 265 93 210 284 280 278 290 289 286 288 287 288 292 290 281 267 261 259 258 259 254 245 246 253 246 238 244 247 243 241 238
159 171 229 226 200 208 235 231 221 225 219 219 234 252 104 278 300 296 288 294 297 298 301 301 297 297 295 294 289 276 268 268 265 252 242 243 250 251 254 257 253 253 256 257
151 196 228 250 279 185 221 222 206 199 226 237 238 256 269 278 285 296 296 293 291 295 300 300 297 297 296 296 293 284 280 272 259 244 241 245 255 258 260 266 258 256 257 261
177 227 237 269 279 254 247 238 215 219 233 245 257 258 271 278 283 290 292 290 286 289 295 292 289 291 294 295 294 291 283 272 252 238 242 251 261 262 263 265 268 268 264 264
163 201 219 268 272 261 268 255 235 237 243 249 263 271 278 288 287 285 287 284 276 284 292 292 287 285 285 285 287 288 284 273 250 239 246 251 250 251 255 262 269 271 273 274
175 168 202 255 299 294 264 245 219 221 225 227 243 259 276 276 277 285 288 279 272 280 286 286 280 275 276 276 277 274 276 270 250 244 246 242 241 244 248 251 257 263 271 273
174 173 203 258 263 245 255 65 202 223 239 227 247 266 278 282 296 288 276 279 281 283 282 282 282 279 280 278 277 276 271 255 246 247 248 243 236 239 245 244 250 264 273 265
210 186 195 213 249 269 271 193 181 211 254 231 245 262 278 303 301 275 266 272 278 285 287 285 281 279 278 275 276 271 267 257 248 250 253 253 246 243 244 247 255 267 265 263
96 196 205 208 236 251 266 115 197 197 256 219 233 254 268 277 272 293 345 311 298 299 297 294 286 280 275 275 270 257 258 258 258 260 260 259 251 243 243 248 258 266 260 261
169 191 213 222 239 261 308 142 167 209 282 338 245 249 233 232 259 311 314 309 307 306 304 300 285 276 275 271 256 253 257 261 268 267 261 261 256 250 247 251 255 252 254 259
188 188 199 201 223 250 138 148 192 266 350 289 274 268 258 264 283 294 298 301 306 307 307 303 292 289 289 273 255 260 263 270 272 265 261 262 263 261 252 243 249 247 244 245
209 205 202 204 222 2 159 188 240 328 285 282 283 284 276 276 280 289 294 296 299 301 300 299 291 293 295 280 262 265 273 274 267 264 266 271 273 269 258 244 244 245 241 242
218 210 220 247 258 253 226 240 274 278 277 283 284 283 273 271 279 287 290 293 297 299 298 297 292 288 292 290 278 267 273 264 252 257 267 269 268 270 266 257 249 247 244 245
204 177 213 249 271 285 246 240 256 271 277 284 290 285 273 270 276 280 283 286 290 296 298 293 282 282 288 293 286 281 268 248 248 253 256 262 263 264 269 269 266 260 256 254
193 191 199 235 229 228 262 247 242 250 261 268 278 288 287 272 271 278 279 284 288 291 294 290 284 282 286 288 285 280 263 240 234 246 255 257 258 259 262 274 291 291 278 276
Height
1509 1509 1507 1508 1509 1509 1508 1507 1506 1508 1515 1515 1511 1508 1509 1511 1512 1512 1512 1512 1512 1511 1512 1511 1511 1511 1511 1512 1512 1513 1514 1514 1515 1516 1516 1517 1517 1518 1519 1520 1520 1521 1522 1522
1507 1508 1510 1511 1512 1512 1510 1508 1506 1511 1516 1514 1510 1506 1506 1508 1508 1509 1509 1509 1509 1509 1509 1508 1508 1508 1508 1509 1509 1510 1511 1512 1513 1513 1514 1515 1515 1515 1516 1517 1517 1517 1518 1519
1503 1510 1512 1512 1511 1510 1510 1509 1508 1511 1515 1516 1512 1499 1501 1504 1506 1507 1506 1506 1506 1506 1505 1505 1505 1505 1506 1506 1507 1507 1508 1509 1510 1511 1511 1512 1512 1513 1513 1513 1514 1514 1515 1516
1508 1511 1511 1510 1510 1509 1507 1512 1513 1514 1511 1505 1511 1494 1491 1499 1502 1502 1503 1503 1503 1503 1503 1502 1502 1502 1503 1503 1504 1505 1506 1506 1507 1508 1508 1508 1509 1508 1509 1510 1511 1512 1513 1513
1508 1512 1511 1509 1510 1510 1509 1513 1514 1513 1511 1509 1509 1505 1485 1497 1497 1497 1498 1499 1500 1500 1500 1499 1499 1500 1500 1501 1502 1502 1503 1504 1504 1505 1505 1506 1506 1507 1507 1508 1508 1509 1509 1510
1511 1513 1513 1511 1512 1512 1513 1514 1514 1513 1510 1504 1503 1501 1482 1489 1492 1493 1495 1496 1497 1497 1497 1497 1497 1497 1498 1498 1499 1499 1500 1501 1501 1502 1503 1503 1504 1504 1504 1504 1505 1506 1506 1507
1509 1511 1513 1513 1511 1512 1512 1508 1502 1499 1498 1489 1505 1502 1487 1488 1492 1492 1494 1494 1494 1494 1494 1494 1494 1495 1495 1495 1496 1496 1497 1498 1499 1499 1500 1500 1501 1501 1501 1502 1502 1503 1503 1504
1503 1503 1511 1512 1510 1508 1509 1506 1499 1493 1486 1483 1502 1493 1485 1490 1492 1492 1493 1493 1493 1493 1492 1492 1492 1492 1492 1493 1493 1494 1495 1495 1496 1496 1497 1498 1498 1498 1499 1499 1500 1500 1501 1501
1501 1503 1513 1513 1513 1511 1508 1506 1508 1505 1509 1500 1483 1487 1489 1489 1490 1490 1491 1491 1491 1491 1491 1491 1491 1490 1490 1490 1491 1491 1492 1492 1493 1494 1494 1495 1495 1496 1496 1497 1497 1497 1498 1498
1506 1509 1512 1514 1513 1513 1511 1509 1509 1505 1497 1485 1478 1481 1477 1484 1486 1488 1489 1490 1489 1490 1489 1489 1489 1488 1488 1488 1488 1489 1489 1489 1490 1491 1491 1492 1493 1493 1493 1494 1494 1494 1495 1495
1509 1509 1512 1512 1511 1507 1512 1512 1507 1503 1501 1489 1478 1474 1482 1483 1485 1486 1488 1488 1488 1488 1488 1487 1487 1486 1486 1486 1486 1486 1486 1486 1487 1487 1488 1489 1489 1490 1490 1490 1491 1491 1491 1492
1508 1507 1506 1509 1513 1515 1511 1507 1506 1500 1500 1500 1487 1480 1487 1487 1487 1488 1488 1487 1487 1487 1486 1485 1485 1484 1483 1483 1483 1483 1483 1483 1484 1484 1485 1485 1486 1486 1487 1487 1487 1488 1488 1489
1508 1508 1503 1499 1510 1515 1513 1511 1511 1509 1502 1497 1488 1480 1488 1488 1488 1488 1487 1486 1485 1485 1484 1483 1482 1481 1481 1480 1480 1480 1480 1480 1481 1481 1481 1482 1482 1483 1483 1484 1484 1484 1485 1485
1507 1507 1501 1491 1491 1502 1508 1510 1511 1508 1498 1490 1486 1478 1484 1485 1486 1486 1486 1485 1484 1483 1482 1481 1480 1479 1479 1478 1478 1478 1478 1477 1478 1478 1478 1478 1479 1479 1480 1480 1481 1481 1481 1481
1506 1505 1507 1506 1506 1506 1504 1504 1506 1505 1495 1490 1481 1485 1481 1483 1485 1484 1484 1483 1482 1481 1480 1479 1478 1477 1477 1476 1475 1475 1475 1475 1475 1475 1475 1475 1476 1476 1476 1477 1477 1477 1478 1478
1506 1506 1509 1507 1507 1507 1504 1499 1499 1499 1496 1492 1489 1485 1482 1484 1484 1483 1482 1481 1480 1479 1478 1477 1476 1475 1474 1473 1473 1472 1472 1472 1472 1471 1472 1472 1472 1472 1473 1473 1473 1474 1474 1474
1505 1507 1504 1496 1507 1503 1492 1487 1492 1492 1490 1489 1485 1481 1482 1483 1482 1482 1480 1479 1478 1476 1475 1474 1473 1472 1471 1471 1470 1469 1469 1469 1468 1468 1468 1468 1469 1469 1469 1469 1470 1470 1470 1470
1505 1504 1502 1499 1502 1494 1478 1488 1487 1487 1486 1487 1484 1482 1482 1482 1480 1479 1478 1477 1475 1474 1473 1471 1470 1469 1469 1468 1467 1466 1466 1466 1465 1465 1465 1465 1465 1465 1465 1465 1466 1466 1465 1466
1503 1502 1500 1499 1491 1480 1480 1486 1488 1488 1483 1482 1482 1481 1481 1481 1479 1475 1475 1474 1473 1472 1471 1469 1468 1467 1466 1465 1464 1463 1462 1462 1462 1461 1461 1461 1461 1461 1461 1461 1462 1462 1462 1462
1504 1503 1500 1498 1490 1480 1474 1485 1486 1487 1478 1478 1479 1479 1479 1480 1476 1473 1473 1472 1471 1469 1468 1466 1465 1464 1463 1462 1461 1460 1459 1458 1458 1458 1458 1458 1458 1458 1457 1457 1457 1458 1458 1458
1501 1501 1498 1494 1489 1476 1481 1484 1485 1481 1474 1477 1477 1477 1477 1477 1475 1474 1471 1470 1468 1467 1465 1463 1462 1460 1459 1458 1457 1456 1455 1455 1455 1454 1454 1454 1454 1454 1454 1454 1454 1454 1454 1453
1490 1491 1494 1492 1488 1478 1481 1483 1481 1476 1476 1476 1475 1475 1474 1473 1472 1471 1469 1467 1465 1463 1462 1460 1459 1457 1456 1455 1454 1452 1452 1452 1451 1451 1450 1450 1450 1450 1450 1450 1450 1450 1450 1449
1487 1484 1481 1481 1476 1475 1476 1475 1476 1475 1475 1474 1473 1473 1472 1470 1469 1467 1466 1464 1462 1460 1459 1457 1455 1454 1453 1452 1451 1449 1449 1448 1448 1447 1447 1446 1446 1446 1446 1446 1446 1446 1446 1445
1484 1485 1483 1480 1473 1474 1473 1473 1473 1473 1472 1471 1471 1470 1469 1467 1465 1464 1462 1461 1459 1457 1456 1454 1452 1451 1449 1448 1447 1447 1446 1445 1444 1444 1443 1443 1443 1443 1442 1442 1442 1442 1442 1441
1476 1481 1480 1476 1472 1471 1469 1469 1469 1469 1469 1468 1467 1467 1465 1464 1462 1461 1459 1457 1455 1454 1452 1451 1449 1448 1446 1445 1444 1443 1443 1442 1441 1441 1440 1440 1440 1439 1439 1438 1438 1438 1438 1438
1472 1473 1472 1466 1466 1467 1465 1465 1466 1465 1465 1464 1463 1462 1461 1460 1458 1457 1455 1454 1452 1451 1449 1447 1446 1444 1443 1442 1441 1440 1440 1439 1438 1437 1437 1437 1436 1436 1435 1435 1435 1434 1435 1434